Location: Unspecified
(0.0000°N, 0.0000°E)
Time: 04:35:47
(UTC+00:00)

Vanguard 1 - All Passes

Search period start: 13 February 2016 00:00
Search period end: 23 February 2016 00:00
Orbit: 650 x 3834 km, 34.2° (Epoch: 11 February)

Date Brightness Start Highest point End Pass type
(mag) Time Alt. Az. Time Alt. Az. Time Alt. Az.
13 Feb - 05:10:45 10° NNW 05:20:05 36° NE 05:35:42 10° ESE visible
13 Feb - 07:29:56 10° WNW 07:43:48 81° SW 08:06:50 10° SE daylight
13 Feb - 09:54:57 10° W 10:12:10 38° SSW 10:33:01 10° SE daylight
13 Feb - 12:30:26 10° SW 12:45:19 19° SSW 12:58:30 10° SSE daylight
13 Feb - 15:06:37 10° SSW 15:18:30 19° S 15:27:09 10° SE daylight
13 Feb - 17:33:07 10° SW 17:45:33 39° SSE 17:52:37 10° E daylight
13 Feb - 19:58:50 10° WSW 20:07:13 46° NW 20:12:21 10° NNE visible
14 Feb - 05:31:08 10° NNW 05:41:11 49° NE 05:58:58 10° ESE visible
14 Feb - 07:51:21 10° WNW 08:05:35 66° SW 08:28:29 10° SE daylight
14 Feb - 10:18:15 10° W 10:35:06 31° SSW 10:54:25 10° SSE daylight
14 Feb - 12:55:20 10° SW 13:09:18 18° S 13:21:13 10° SSE daylight
14 Feb - 15:28:21 10° SSW 15:41:28 23° SSE 15:50:22 10° ESE daylight
14 Feb - 17:54:23 10° SW 18:07:16 55° SSE 18:14:12 10° ENE daylight
14 Feb - 20:21:18 10° W 20:28:02 27° NW 20:32:37 10° NNE visible
15 Feb - 03:35:59 10° NNE 03:40:22 14° NE 03:45:58 10° ENE visible
15 Feb - 05:51:45 10° NW 06:02:18 65° NE 06:21:40 10° ESE visible
15 Feb - 08:13:05 10° WNW 08:27:39 53° SSW 08:49:58 10° SE daylight
15 Feb - 10:42:08 10° WSW 10:58:26 26° SSW 11:16:04 10° SSE daylight
15 Feb - 13:19:29 10° SW 13:33:16 18° S 13:44:32 10° SE daylight
15 Feb - 15:49:46 10° SSW 16:04:06 28° SSE 16:13:07 10° ESE daylight
15 Feb - 18:15:52 10° SW 18:28:42 78° SE 18:35:25 10° ENE daylight
15 Feb - 20:44:40 10° W 20:48:52 16° NW 20:52:12 10° N visible
16 Feb - 03:55:09 10° N 04:01:34 22° NE 04:11:07 10° E visible
16 Feb - 06:12:36 10° NW 06:23:33 84° NE 06:43:55 10° SE daylight
16 Feb - 08:35:14 10° W 08:50:00 43° SSW 09:11:24 10° SE daylight
16 Feb - 11:06:31 10° WSW 11:22:08 22° SSW 11:38:07 10° SSE daylight
16 Feb - 13:42:39 10° SSW 13:57:01 20° S 14:08:08 10° SE daylight
16 Feb - 16:11:06 10° SW 16:26:26 36° SSE 16:35:25 10° E daylight
16 Feb - 18:37:38 10° WSW 18:49:50 73° NW 18:56:20 10° NE visible
17 Feb - 04:15:05 10° NNW 04:22:34 32° NE 04:35:03 10° E visible
17 Feb - 06:33:41 10° WNW 06:45:01 77° SW 07:05:49 10° SE daylight
17 Feb - 08:57:51 10° W 09:12:40 35° SSW 09:32:51 10° SE daylight
17 Feb - 11:31:05 10° SW 11:46:08 20° S 12:00:44 10° SE daylight
17 Feb - 14:05:01 10° SSW 14:20:26 23° SSE 14:31:40 10° ESE daylight
17 Feb - 16:32:26 10° SW 16:48:28 48° SSE 16:57:16 10° E daylight
17 Feb - 18:59:49 10° WSW 19:10:46 48° NW 19:16:56 10° NNE visible
18 Feb - 04:35:22 10° NNW 04:43:30 46° NE 04:58:12 10° ESE visible
18 Feb - 06:55:04 10° WNW 07:06:46 61° SSW 07:27:28 10° SE daylight
18 Feb - 09:20:58 10° WSW 09:35:41 29° SSW 09:54:27 10° SSE daylight
18 Feb - 11:55:23 10° SW 12:10:18 20° S 12:24:01 10° SE daylight
18 Feb - 14:26:51 10° SSW 14:43:30 28° SSE 14:54:50 10° ESE daylight
18 Feb - 16:53:54 10° SW 17:10:13 64° SSE 17:18:46 10° ENE daylight
18 Feb - 19:22:32 10° WSW 19:31:35 31° NW 19:37:13 10° NNE visible
19 Feb - 02:42:13 10° NNE 02:43:36 10° NE 02:45:04 10° NE visible
19 Feb - 04:55:56 10° NW 05:04:29 65° NE 05:20:47 10° ESE visible
19 Feb - 07:16:46 10° W 07:28:48 48° SSW 07:48:58 10° SE daylight
19 Feb - 09:44:38 10° WSW 09:59:05 24° SSW 10:16:23 10° SSE daylight
19 Feb - 12:19:00 10° SW 12:34:24 20° S 12:47:49 10° SE daylight
19 Feb - 14:48:25 10° SW 15:06:14 34° SSE 15:17:32 10° E daylight
19 Feb - 17:15:34 10° SW 17:31:41 85° SE 17:39:57 10° NE daylight
19 Feb - 19:46:00 10° W 19:52:26 19° NW 19:57:01 10° N visible
20 Feb - 02:59:56 10° N 03:04:40 18° NE 03:11:15 10° E visible
20 Feb - 05:16:44 10° NW 05:25:38 87° NE 05:42:56 10° SE visible
20 Feb - 07:38:52 10° W 07:51:08 38° SSW 08:10:26 10° SE daylight
20 Feb - 10:08:39 10° SW 10:22:51 21° S 10:38:51 10° SE daylight
20 Feb - 12:41:49 10° SSW 12:58:15 23° SSE 13:11:45 10° ESE daylight
20 Feb - 15:09:51 10° SW 15:28:37 43° SSE 15:39:47 10° E daylight
20 Feb - 17:37:33 10° WSW 17:52:53 71° NW 18:00:50 10° NE daylight
20 Feb - 20:11:21 10° WNW 20:13:26 11° NW 20:15:17 10° NNW visible
21 Feb - 03:19:37 10° NNW 03:25:34 29° NE 03:35:04 10° E visible
21 Feb - 05:37:50 10° WNW 05:47:03 72° SW 06:04:45 10° SE visible
21 Feb - 08:01:26 10° WSW 08:13:46 31° SSW 08:31:57 10° SE daylight
21 Feb - 10:32:44 10° SW 10:46:54 20° S 11:02:00 10° SE daylight
21 Feb - 13:03:59 10° SSW 13:21:45 26° SSE 13:35:26 10° ESE daylight
21 Feb - 15:31:19 10° SW 15:50:43 55° SSE 16:01:35 10° ENE daylight
21 Feb - 17:59:56 10° WSW 18:13:52 50° NW 18:21:27 10° NNE daylight
22 Feb - 03:39:49 10° NNW 03:46:24 43° NE 03:58:02 10° ESE visible
22 Feb - 05:59:12 10° WNW 06:08:44 55° SSW 06:26:19 10° SE daylight
22 Feb - 08:24:29 10° WSW 08:36:46 26° SSW 08:53:41 10° SSE daylight
22 Feb - 10:56:26 10° SW 11:11:06 20° S 11:25:53 10° SE daylight
22 Feb - 13:25:44 10° SW 13:44:53 32° SSE 13:58:40 10° E daylight
22 Feb - 15:52:54 10° SW 16:12:31 70° SE 16:23:03 10° ENE daylight
22 Feb - 18:22:50 10° WSW 18:34:45 35° NW 18:41:48 10° NNE visible
